Location: Newark
(40.4667°N, 5.6000°W)
Time: 23:16:28
(UTC+00:00)

A-11 Canister half - Pass Details

Date: 23 November 2019
Orbit: 1526 x 1683 km, 47.3° (Epoch: 14 December)

Event Time Altitude Azimuth Distance (km) Brightness Sun altitude
Rises 19:27:12 0° 290° (WNW) 4,777 12.6 -27.7°
Reaches altitude 10° 19:31:48 10° 272° (W) 3,759 12.0 -28.6°
Maximum altitude 19:37:07 17° 237° (WSW) 3,228 11.3 -29.6°
Drops below altitude 10° 19:42:23 10° 201° (SSW) 3,698 11.2 -30.6°
Sets 19:46:54 0° 182° (S) 4,664 11.6 -31.5°
